Weather History for Andover, NJ

Change the Weather History Date:

Wednesday, May 8, 2013

  Actual Average (KFWN) Record (KFWN)
Temperature  
Mean Temperature 60 °F -  
Max Temperature 68 °F 68 °F 88 °F (1959)
Min Temperature 54 °F 38 °F 26 °F (1974)
Degree Days  
Heating Degree Days 4    
Growing Degree Days 10 (Base 50)    
Moisture  
Dew Point 57 °F    
Average Humidity 85    
Maximum Humidity 96    
Minimum Humidity 73    
Precipitation  
Precipitation 1.36 in - - ()
Sea Level Pressure  
Sea Level Pressure 30.01 in    
Wind  
Wind Speed 2 mph (NW)    
Max Wind Speed 6 mph    
Max Gust Speed -    
Averages and records for this station are not official NWS values.
T = Trace of Precipitation, MM = Missing Value Source: NWS Daily Summary

Daily Weather History Graph

Daily Weather History Graph

Search for Another Location

Airport:

Trip Planner

Search our weather history database for the weather conditions in past years. The results will help you decide how hot, cold, wet, or windy it might be!

Date:

Astronomy

May. 08, 2013 Rise Set
Actual Time 5:48 AM EDT 8:03 PM EDT
Civil Twilight 5:17 AM EDT 8:33 PM EDT
Nautical Twilight 4:40 AM EDT 9:11 PM EDT
Astronomical Twilight 3:58 AM EDT 9:53 PM EDT
Moon 4:55 AM EDT (5/8) 6:58 PM EDT (5/8)
Length of Visible Light 15h 16m
Length of Day
14h 15m
Waning Crescent, 2% of the Moon is Illuminated
May 8
Waning Crescent
May 9
New
May 18
First Quarter
May 25
Full
May 31
Last Quarter

Hourly Weather History & Observations

Time (EDT) Temp. Dew Point Humidity Pressure Visibility Wind Dir Wind Speed Gust Speed Precip Events Conditions
12:54 AM 63.0 °F 55.9 °F 78% 30.07 in - Variable 3.5 mph - N/A   Unknown
1:54 AM 62.1 °F 55.0 °F 78% 30.06 in - Calm Calm - N/A   Unknown
2:54 AM 60.1 °F 57.0 °F 90% 30.04 in - Calm Calm - 0.05 in   Unknown
3:54 AM 60.1 °F 57.9 °F 93% 30.05 in - Calm Calm - 0.02 in   Unknown
4:54 AM 61.0 °F 57.0 °F 87% 30.03 in - Variable 3.5 mph - N/A   Unknown
5:54 AM 60.1 °F 57.0 °F 90% 30.02 in - Calm Calm - N/A   Unknown
6:54 AM 61.0 °F 57.0 °F 87% 30.05 in - Variable 3.5 mph - N/A   Unknown
7:54 AM 61.0 °F 57.9 °F 90% 30.05 in - Variable 3.5 mph - 0.03 in   Unknown
8:54 AM 61.0 °F 57.0 °F 87% 30.07 in - Calm Calm - 0.09 in   Unknown
9:54 AM 60.1 °F 57.9 °F 93% 30.05 in - Variable 4.6 mph - 0.13 in   Unknown
10:54 AM 64.0 °F 60.1 °F 87% 30.04 in - Variable 3.5 mph - 0.07 in   Unknown
11:54 AM 64.9 °F 57.9 °F 78% 30.04 in - NE 4.6 mph - N/A   Unknown
12:54 PM 61.0 °F 59.0 °F 93% 30.01 in - WSW 4.6 mph - N/A   Unknown
1:54 PM 60.1 °F 59.0 °F 96% 30.00 in - Calm Calm - 0.80 in   Unknown
2:54 PM 64.9 °F 60.1 °F 84% 29.97 in - Calm Calm - 0.17 in   Unknown
3:54 PM 66.0 °F 60.1 °F 81% 29.96 in - Variable 5.8 mph - N/A   Unknown
4:54 PM 66.0 °F 59.0 °F 78% 29.96 in - Variable 5.8 mph - N/A   Unknown
5:54 PM 66.9 °F 57.9 °F 73% 29.95 in - Variable 4.6 mph - N/A   Unknown
6:54 PM 66.0 °F 57.9 °F 75% 29.94 in - Calm Calm - N/A   Unknown
7:54 PM 63.0 °F 57.0 °F 81% 29.96 in - Variable 3.5 mph - N/A   Unknown
8:54 PM 60.1 °F 53.1 °F 78% 29.99 in - Calm Calm - N/A   Unknown
9:54 PM 57.9 °F 52.0 °F 81% 30.01 in - Calm Calm - N/A   Unknown
10:54 PM 55.9 °F 52.0 °F 87% 30.01 in - Calm Calm - N/A   Unknown
11:54 PM 54.0 °F 51.1 °F 90% 29.99 in - Calm Calm - N/A   Unknown